GFSWCAN_850_thetae_237.txt.gz
Theta_e
308 312 318 322 324 324 324 316 315 317 319 317 317 318 319 316 314 316 313 312 313 305 299 300 302 303 303 308 312 302 302 300 303 310 313 307 307 303 302 301 302 302 306 306 301 303 302 295 296 296 296 295 295 295
307 311 314 320 324 324 324 316 316 318 318 316 318 318 318 314 312 314 313 312 312 311 299 300 301 302 303 303 302 301 305 303 304 308 305 304 304 301 303 307 297 303 302 306 302 302 296 295 295 295 295 294 295 295
305 310 313 319 322 324 324 316 316 318 317 317 318 318 317 313 312 312 313 312 311 302 298 299 298 299 300 301 302 303 300 300 299 302 305 305 309 302 306 304 301 298 295 298 297 297 295 294 294 294 294 294 295 295
304 310 312 317 322 324 324 316 316 318 317 317 318 318 317 314 311 310 312 311 311 308 304 298 297 298 298 298 300 301 302 300 298 297 298 306 307 297 303 299 300 299 295 298 298 296 295 295 295 294 294 295 295 293
304 310 312 314 321 324 324 315 316 318 317 318 319 316 315 315 314 312 312 312 313 314 303 297 297 297 298 298 299 298 298 297 299 301 303 304 296 296 296 296 298 296 298 299 300 297 297 296 294 294 295 295 293 293
303 309 312 316 320 323 324 315 316 317 317 318 318 317 318 317 316 311 311 311 314 314 308 305 296 294 296 297 297 297 297 297 296 300 298 295 293 297 301 302 299 296 296 296 296 295 295 294 294 294 295 294 292 292
302 308 312 315 319 323 323 315 316 317 318 319 317 318 320 315 311 316 318 315 313 313 311 298 297 294 295 295 295 295 295 295 297 296 298 297 296 296 300 301 297 295 294 295 295 294 294 294 295 294 294 292 292 293
302 306 312 314 319 323 322 315 316 317 318 319 319 318 312 311 315 316 314 313 314 314 310 301 296 296 294 295 296 293 293 293 293 296 295 297 294 295 298 298 294 294 294 295 294 294 294 294 294 294 292 292 293 293
301 305 311 313 318 321 320 314 316 318 318 319 319 312 312 315 316 313 313 313 314 314 307 304 305 304 293 295 295 294 294 299 292 298 297 294 299 298 299 298 294 294 295 295 294 293 294 295 294 293 292 292 293 293
301 305 312 312 317 320 319 314 316 318 318 316 311 314 316 316 313 314 314 315 315 312 307 299 298 298 296 297 296 297 295 298 301 296 292 295 299 299 295 295 294 294 295 294 294 293 294 295 294 292 292 292 292 292
301 304 311 313 317 320 318 314 317 317 315 311 315 318 311 311 314 315 314 313 307 304 300 298 299 296 295 300 299 295 298 295 302 299 297 302 301 297 294 294 294 294 294 294 294 294 295 295 293 292 292 291 290 291
301 304 312 313 316 319 317 315 317 316 311 316 318 310 311 314 313 311 303 301 306 309 297 299 297 295 294 295 297 294 299 295 303 293 297 301 302 295 293 293 294 294 294 293 294 294 294 293 292 292 291 290 290 291
301 304 311 314 315 319 316 315 316 315 316 316 316 312 313 307 309 313 311 310 306 297 295 296 297 295 294 294 295 296 300 301 293 297 302 304 297 293 292 294 294 294 293 293 294 294 293 292 292 291 290 290 290 290
301 305 310 314 315 318 316 315 314 316 319 318 312 306 308 307 310 312 315 311 301 298 298 298 296 298 295 297 296 301 295 295 298 300 304 302 295 293 292 294 294 293 293 293 293 293 293 292 291 290 289 289 290 290
302 306 311 314 314 317 316 315 315 318 319 318 315 314 306 309 307 308 308 300 298 298 298 297 296 297 296 294 295 294 294 299 301 305 304 299 294 292 293 293 293 293 293 293 292 292 291 291 290 290 289 289 290 290
304 308 311 314 314 316 315 313 316 318 319 317 311 306 308 307 299 299 299 296 297 298 300 300 298 301 298 299 296 299 304 306 310 300 298 295 294 292 293 293 293 292 293 293 292 292 291 290 290 290 289 289 289 290
301 305 311 313 316 314 315 312 314 318 319 314 304 307 309 309 305 302 299 297 298 301 304 299 304 305 295 299 301 299 302 306 301 297 296 294 294 293 293 293 293 292 292 292 292 291 291 291 290 290 289 289 289 289
299 307 312 314 314 312 310 314 315 311 302 299 306 305 308 310 304 301 301 299 299 303 300 305 296 298 302 304 303 300 296 298 297 295 294 293 293 292 293 293 292 292 292 292 291 291 290 289 290 290 289 289 289 289
301 307 311 314 314 309 310 309 309 299 295 301 305 308 307 305 306 307 306 300 301 303 302 301 303 304 302 301 302 300 299 299 296 294 293 293 292 293 292 292 291 291 291 291 290 289 289 289 290 290 290 289 289 289
302 304 312 313 312 309 305 301 308 303 299 299 299 300 303 302 303 303 298 299 300 301 300 300 305 303 305 309 308 308 305 303 301 294 292 292 292 292 292 291 291 291 290 289 289 289 289 289 289 289 290 289 289 289
300 303 311 311 308 307 303 300 297 295 295 294 295 299 296 296 295 296 296 296 299 298 300 299 304 307 307 307 307 307 306 306 303 303 300 292 292 292 292 291 291 291 290 289 289 288 289 289 289 289 289 289 288 289
301 306 308 307 305 299 295 294 293 293 293 293 294 293 294 295 295 295 295 296 296 300 299 302 303 305 306 307 306 306 306 303 301 298 295 294 292 292 291 291 291 290 289 289 288 288 289 289 289 288 289 289 288 289
307 308 306 302 293 292 291 292 293 293 294 294 293 293 293 293 293 293 296 297 297 299 301 304 304 304 306 305 304 304 303 303 300 295 294 293 292 292 291 290 290 289 289 288 288 288 288 288 288 288 289 289 288 288
307 304 295 292 291 291 290 291 292 292 292 293 293 292 292 291 292 292 298 296 294 298 300 302 302 301 298 299 302 304 302 299 297 294 294 293 292 291 290 290 289 288 288 288 288 288 288 288 288 289 289 289 288 288
298 291 290 290 289 291 292 293 294 294 292 292 292 291 291 291 294 294 295 296 295 295 297 299 300 301 302 301 301 300 298 300 297 294 293 293 291 290 289 289 288 288 288 288 288 288 288 289 289 289 289 289 288 288
290 289 291 290 291 293 293 293 294 294 292 291 291 291 291 292 293 297 298 293 293 295 297 299 300 300 301 305 303 300 298 295 293 293 293 292 291 291 289 288 288 288 288 288 288 288 288 288 289 289 289 289 288 288
290 290 290 291 291 292 293 293 294 294 292 292 291 292 292 294 297 295 293 297 296 299 302 301 301 303 303 302 301 299 297 293 292 293 293 291 291 290 289 288 288 288 288 288 288 288 288 288 289 289 289 289 288 288
289 290 291 292 292 293 293 295 294 297 294 292 293 292 293 295 297 291 295 301 304 303 301 300 300 300 301 299 298 296 292 292 292 293 291 291 290 289 288 288 288 288 288 288 288 288 288 289 290 290 290 288 288 288
292 292 293 293 292 292 293 294 295 293 292 294 297 294 292 290 293 294 296 299 298 297 295 293 292 295 296 295 294 292 293 293 292 291 290 289 289 289 288 288 288 288 288 288 289 289 290 290 290 290 290 288 288 288
292 291 290 289 290 290 288 290 290 291 293 291 289 289 290 290 291 292 294 293 294 294 294 294 294 295 294 293 292 292 293 292 291 289 289 289 289 289 288 288 288 289 289 289 290 290 290 290 290 290 289 288 288 288
289 289 288 289 290 289 289 289 290 290 291 290 291 291 290 290 289 290 290 291 291 291 291 291 291 292 293 293 293 292 291 290 289 289 289 289 289 289 289 289 289 289 289 289 289 289 290 290 290 289 289 289 288 288
290 289 290 290 290 290 291 290 290 290 290 290 290 290 290 290 289 289 289 290 290 290 290 291 291 292 294 295 293 291 290 289 289 289 289 290 290 289 289 289 288 288 288 288 289 289 290 290 290 290 290 289 289 289
289 290 290 291 291 290 290 290 290 289 289 290 290 290 290 289 289 289 289 290 290 290 290 291 292 294 294 292 291 290 289 289 289 289 289 289 289 288 288 288 288 288 288 288 289 289 289 290 290 290 290 290 290 289

GFSWCAN_850_thetae_240.txt.gz
Theta_e
297 301 305 308 315 323 324 325 324 318 315 316 318 317 316 317 317 315 315 312 312 308 303 304 306 305 307 307 309 301 302 301 305 309 316 307 307 302 302 302 302 302 304 305 300 301 303 295 296 296 295 295 295 295
297 298 305 307 314 319 322 324 324 320 315 316 318 317 317 317 317 313 313 312 311 312 300 302 303 304 306 307 303 302 308 304 306 309 306 304 303 300 303 305 298 301 301 305 301 299 296 295 296 295 295 294 295 295
297 297 303 307 312 315 322 324 324 321 315 316 318 317 317 316 312 311 313 313 311 305 298 300 300 301 302 304 303 304 303 304 303 307 308 306 306 302 305 302 300 298 297 296 297 296 295 295 294 294 294 294 295 295
297 297 301 307 311 313 321 323 324 321 315 316 317 316 315 314 311 310 312 311 311 308 302 297 297 298 299 301 302 304 304 302 302 300 301 307 307 300 301 299 298 297 296 297 297 296 295 295 295 294 294 295 295 293
297 297 298 305 309 313 320 322 324 320 315 317 317 316 313 311 310 310 310 311 312 313 301 297 297 298 298 298 299 299 299 299 300 301 304 303 297 298 297 296 295 297 297 296 297 297 297 296 295 293 295 295 293 292
296 298 296 303 309 312 317 321 324 319 315 317 317 315 314 312 308 308 308 308 310 313 306 302 296 296 297 297 298 299 299 300 299 301 298 296 296 299 301 300 299 298 297 297 296 296 296 295 293 294 295 292 292 293
296 296 296 302 310 312 315 320 324 317 315 317 316 314 312 310 309 311 315 312 311 313 310 298 296 296 296 296 297 297 297 298 298 298 299 298 296 298 300 299 297 296 296 296 296 294 294 294 295 294 293 292 293 293
297 295 298 302 309 314 315 320 323 316 315 317 313 312 312 311 309 312 314 311 312 312 308 300 296 295 296 297 296 296 295 295 296 296 296 298 295 295 296 299 296 295 295 295 294 295 295 294 294 293 292 292 293 293
298 298 301 302 308 313 316 318 322 315 316 316 312 312 310 307 311 312 309 309 311 312 305 303 301 302 296 297 295 294 297 299 295 299 297 295 298 296 298 299 295 295 295 295 294 294 293 294 294 292 293 292 292 291
298 299 301 302 306 311 312 316 321 314 316 311 310 308 311 311 312 310 310 313 313 310 306 301 298 296 297 299 297 297 299 299 300 296 294 295 297 300 299 299 296 295 295 295 294 294 295 295 293 293 292 292 291 291
300 300 301 302 306 312 313 315 320 314 312 309 309 315 310 310 312 314 314 313 307 304 301 301 298 296 298 301 298 298 300 297 300 298 296 300 299 298 298 296 295 294 295 295 294 293 294 295 293 293 292 292 290 290
300 300 300 301 305 312 312 313 318 313 309 311 314 310 310 314 313 311 305 302 305 307 298 299 298 296 297 298 296 296 298 296 302 294 296 299 301 299 296 295 294 295 295 294 294 294 295 295 293 292 292 291 290 290
298 299 300 301 304 310 311 312 317 311 311 313 313 311 311 308 309 311 310 306 301 299 298 297 297 296 297 298 296 298 298 300 295 297 300 301 298 296 294 294 294 295 294 294 294 294 294 293 292 292 291 290 290 290
298 299 300 301 304 309 311 312 313 310 313 316 311 306 308 307 308 310 312 309 303 300 298 299 298 299 297 299 298 299 295 295 298 299 302 300 299 295 294 295 295 294 294 293 294 293 293 293 292 291 290 290 290 290
298 298 298 301 303 308 310 310 314 311 316 316 314 314 308 310 310 312 310 303 302 300 300 300 298 298 297 294 296 293 292 297 299 303 302 303 301 296 294 295 294 294 293 293 293 293 293 292 292 290 290 289 289 289
297 297 299 302 305 308 311 310 311 310 316 316 313 309 310 307 301 301 302 300 300 300 303 303 299 298 296 296 294 298 300 303 303 301 302 301 299 295 294 294 294 294 293 293 293 293 292 292 291 290 290 289 289 289
296 297 299 303 306 308 311 309 308 311 316 312 307 311 312 308 306 303 302 301 301 304 301 301 301 302 297 298 299 299 302 305 306 302 301 301 299 295 294 294 294 293 293 292 293 292 292 291 290 290 290 289 289 289
296 296 300 303 306 308 308 308 309 313 312 304 310 310 312 311 306 301 303 301 302 305 302 303 298 296 299 301 301 300 300 302 303 302 301 298 297 295 295 294 294 293 292 292 292 292 292 291 290 290 290 289 289 289
296 296 298 300 305 307 303 305 307 310 301 303 310 312 311 308 309 310 308 302 304 305 304 303 301 302 301 303 305 303 302 302 300 299 297 296 296 295 294 294 293 292 292 292 292 292 291 290 290 290 290 289 289 289
296 296 296 300 303 304 300 300 304 307 302 304 305 306 306 305 306 306 300 301 304 303 302 299 303 306 309 310 310 309 307 305 303 296 294 294 294 294 294 293 292 292 292 292 292 291 290 289 289 289 289 289 289 289
296 295 296 298 300 301 302 302 300 302 300 298 298 303 300 300 298 298 298 299 302 302 301 303 309 311 311 311 311 310 309 308 309 311 306 296 294 293 293 293 292 292 292 291 290 290 289 289 289 289 289 289 289 289
295 295 297 299 299 299 298 299 299 297 298 297 298 296 297 299 298 299 298 299 298 303 305 307 310 311 310 310 310 311 311 308 305 305 303 301 296 293 292 292 291 291 291 291 290 290 289 289 289 289 289 289 289 288
295 296 296 298 295 293 292 295 294 295 296 297 295 296 295 294 296 297 299 301 301 303 306 309 310 310 309 309 309 308 308 308 305 304 302 299 296 294 292 292 291 291 291 290 290 289 289 289 289 288 288 289 289 288
295 297 298 293 292 292 291 292 293 293 294 295 294 293 293 293 295 294 297 297 299 302 306 308 307 306 304 304 306 309 308 305 304 301 300 298 295 293 293 292 291 291 291 290 289 288 288 288 288 288 288 289 289 288
296 295 292 291 291 292 293 294 295 296 294 293 293 292 292 292 295 296 300 297 299 300 303 306 305 306 308 306 306 307 308 308 306 303 298 297 296 293 292 292 291 290 290 289 288 288 288 288 288 288 289 289 289 288
296 292 291 291 292 294 294 295 297 296 293 293 292 291 291 293 298 305 307 299 298 300 301 304 305 305 306 310 310 309 307 305 301 301 299 296 296 297 293 291 290 289 289 288 288 288 288 288 288 289 289 289 289 288
290 289 290 292 293 294 295 297 298 297 294 293 292 292 294 301 304 298 300 305 303 304 305 307 308 309 310 309 308 307 307 307 303 303 301 297 295 295 294 292 290 290 289 288 288 288 288 288 288 289 289 289 289 288
291 291 292 292 295 294 296 298 298 299 295 293 294 293 298 301 300 295 300 306 310 310 308 307 308 307 308 308 309 306 304 301 296 296 295 293 292 293 292 291 291 289 288 288 288 288 288 288 288 289 289 289 289 288
292 292 295 295 293 294 294 296 298 296 294 295 303 295 293 292 297 302 307 309 308 308 306 304 301 301 302 303 304 305 305 304 298 293 293 290 290 290 291 291 289 288 288 288 288 288 288 288 288 289 289 289 288 288
294 294 293 291 292 291 290 292 292 294 295 297 295 292 291 292 294 300 302 303 304 307 310 308 305 302 301 302 300 297 298 301 302 307 298 291 291 291 290 289 288 288 288 288 288 288 288 289 289 289 290 289 288 288
290 290 290 291 290 290 290 291 292 294 294 293 294 292 290 291 291 293 297 299 300 299 298 296 295 295 298 297 297 296 294 293 293 293 293 293 292 290 289 288 288 288 288 288 288 289 289 290 290 290 290 289 289 288
290 291 291 290 290 291 292 291 291 292 292 292 292 291 291 290 289 290 292 294 294 294 294 295 295 294 295 297 297 298 297 293 291 291 293 293 290 289 289 288 288 288 288 289 289 290 290 290 290 290 289 289 289 289
291 291 291 292 291 291 290 290 290 290 290 291 291 290 290 290 290 290 290 291 292 292 292 292 292 293 294 295 294 293 293 293 292 294 292 290 289 289 289 288 289 289 289 289 289 289 289 290 290 290 289 289 289 289

GFSWCAN_850_thetae_246.txt.gz
Theta_e
297 297 297 298 295 302 307 315 316 321 322 323 317 315 316 318 315 316 315 312 313 310 305 305 306 306 304 302 297 298 299 298 299 304 300 299 300 297 300 300 299 299 296 294 290 291 302 295 294 293 292 294 294 294
296 296 297 297 296 296 304 309 315 320 322 323 321 315 315 317 316 316 314 314 311 311 304 305 306 306 307 306 304 300 304 301 304 301 297 295 299 294 298 303 295 296 298 299 298 298 296 295 295 295 294 293 294 293
295 295 296 296 296 294 298 305 313 316 321 322 323 316 314 317 316 316 315 314 312 309 303 303 303 304 306 306 305 303 305 304 306 307 302 295 298 294 297 297 297 295 296 293 295 294 294 295 295 294 293 293 293 292
294 294 295 296 296 294 294 304 308 315 319 321 323 319 314 316 317 315 314 313 312 309 304 300 300 302 304 305 303 306 307 305 306 305 303 293 297 297 296 298 296 295 295 293 293 293 294 294 294 294 293 294 292 292
295 295 295 296 297 295 293 299 305 313 314 321 322 322 314 316 317 314 311 311 311 311 300 297 298 299 301 303 303 304 305 305 304 303 301 294 297 296 292 292 292 295 293 294 296 296 296 295 294 294 293 293 292 292
294 295 296 296 297 297 294 295 304 309 312 320 321 322 314 316 316 309 308 308 309 309 309 296 297 297 298 299 301 302 302 303 302 301 297 296 296 297 290 294 298 299 299 299 299 296 297 296 295 293 293 292 293 292
293 293 295 295 296 297 297 294 301 308 313 317 320 322 314 315 311 308 309 310 309 308 310 294 295 296 297 298 299 299 300 301 301 299 297 295 295 299 288 294 301 299 298 298 298 297 295 295 293 294 292 292 292 291
293 293 294 295 295 297 296 293 300 307 312 315 319 319 313 309 306 307 311 312 307 309 308 291 288 296 296 297 297 298 298 300 299 297 296 296 293 294 291 298 298 297 297 297 297 297 296 294 293 293 292 292 292 291
292 294 294 294 295 296 298 293 299 306 311 313 315 313 307 304 304 306 308 308 307 308 306 296 295 295 295 296 296 297 299 295 297 297 295 295 288 291 298 299 297 297 298 297 296 295 294 294 293 292 292 292 291 290
291 292 294 295 295 297 298 293 298 306 309 312 312 305 303 304 305 305 305 306 306 308 306 298 296 292 297 296 295 298 298 290 292 293 294 289 292 301 301 301 301 298 298 296 295 293 294 294 293 292 292 292 291 290
292 292 293 294 297 298 298 293 297 305 306 310 305 305 305 305 306 307 306 304 305 301 301 297 296 293 297 296 294 296 291 287 294 294 292 292 294 297 303 301 299 299 298 297 297 297 294 294 293 293 292 292 290 290
291 292 293 293 298 298 298 297 300 303 306 308 306 303 303 307 308 306 304 301 301 304 298 296 298 299 299 300 299 295 291 290 296 291 289 295 296 302 301 300 298 298 297 296 295 295 294 294 293 293 292 291 290 290
292 292 292 293 297 298 298 299 301 301 306 307 304 302 301 305 308 309 308 304 302 296 296 297 295 300 299 298 296 292 291 295 292 289 295 296 300 301 301 299 297 297 296 296 294 294 294 293 293 292 292 290 290 290
291 292 292 293 296 299 298 300 301 302 307 304 301 303 302 307 306 304 309 303 304 301 298 300 297 299 297 295 293 295 288 291 291 295 299 298 302 301 300 299 298 297 296 295 294 294 294 293 293 292 292 290 290 289
291 292 292 296 299 300 300 300 300 302 303 301 303 306 306 306 304 309 311 307 302 300 301 299 297 299 294 293 288 288 288 292 296 300 297 305 304 302 300 299 298 296 295 295 294 294 294 294 293 292 291 290 290 289
291 291 294 298 299 300 300 299 299 300 302 302 303 308 305 302 297 302 306 300 300 300 304 305 292 292 289 291 289 297 299 301 301 294 305 304 304 301 300 299 298 296 296 295 294 294 294 294 293 292 290 290 290 289
291 291 293 295 297 298 299 299 299 300 301 301 306 309 308 306 305 303 305 300 301 303 306 298 301 302 290 289 294 296 300 302 305 305 306 306 306 303 300 299 297 296 295 295 294 294 294 293 292 291 290 290 290 289
290 291 292 294 296 297 299 299 300 299 299 301 305 309 309 308 308 303 304 304 302 307 305 304 297 291 297 299 299 298 302 305 306 307 308 306 305 303 303 300 297 296 296 295 294 294 293 293 292 291 290 290 290 289
290 291 292 293 295 296 299 299 299 299 300 304 306 310 309 310 308 309 309 303 306 309 307 303 299 299 298 299 302 306 307 308 307 305 306 305 305 305 302 299 297 296 295 294 294 293 293 293 293 291 290 290 290 289
290 291 292 293 295 296 297 299 299 300 300 303 307 308 309 307 307 305 301 304 306 306 306 298 299 304 309 312 312 313 312 310 310 303 301 301 302 302 300 299 298 296 295 294 293 293 293 292 292 291 290 290 290 289
291 291 292 293 295 296 296 297 299 299 303 304 306 308 303 302 302 301 301 303 305 307 302 308 312 313 312 313 312 312 311 312 313 314 311 302 301 299 298 298 297 296 295 294 293 293 293 292 291 291 290 290 289 289
291 292 293 295 295 296 295 298 298 300 299 301 302 306 300 300 300 301 302 301 304 311 311 311 313 313 312 311 312 311 312 311 310 310 308 308 303 299 298 298 297 296 295 294 293 293 292 292 291 291 290 290 289 289
292 292 294 295 295 295 295 296 297 298 299 299 301 300 299 300 301 302 300 302 305 310 311 312 313 313 313 312 311 309 310 311 310 309 310 309 306 302 300 299 298 297 295 294 293 293 293 292 291 290 290 289 289 289
291 293 294 294 295 294 293 293 294 295 296 298 302 297 296 297 298 297 301 300 306 307 310 311 312 311 308 307 309 309 308 308 308 308 309 310 306 303 302 301 299 298 297 295 293 293 292 292 290 290 289 289 289 289
293 294 294 293 293 291 291 291 293 294 297 296 296 294 295 297 298 299 302 305 306 306 307 310 312 312 312 308 306 305 305 308 310 310 308 308 307 302 299 298 297 297 296 295 293 292 292 291 290 289 289 289 289 289
294 294 293 291 289 290 291 292 293 296 295 294 296 294 293 297 302 304 305 309 307 306 305 307 309 307 307 310 310 306 307 308 309 310 310 310 310 310 307 302 298 296 296 295 294 292 292 291 290 289 289 289 289 289
294 293 292 292 292 292 293 294 296 295 296 295 293 293 295 303 306 302 309 312 311 310 309 309 311 312 313 311 309 308 307 309 309 311 312 311 309 309 312 310 308 306 300 296 293 293 292 291 290 289 289 289 289 289
294 291 291 291 292 293 294 295 296 297 298 295 294 296 303 308 308 306 311 312 313 315 310 310 308 306 310 312 312 310 307 305 304 305 305 304 304 305 305 305 304 304 300 296 294 292 292 291 289 289 289 288 289 289
291 294 293 291 291 293 294 296 299 301 300 294 300 298 299 307 308 310 312 313 313 313 310 308 307 305 306 307 308 311 311 309 307 304 304 304 302 302 302 302 303 301 298 295 293 292 291 290 289 289 289 288 289 289
287 293 292 290 290 293 296 298 299 300 301 300 298 296 297 300 307 311 310 311 312 312 311 310 309 307 307 307 305 305 308 309 313 313 310 308 311 308 305 303 301 300 298 294 292 291 290 289 289 288 288 288 288 289
292 292 289 293 293 295 296 298 298 295 297 297 299 293 294 296 302 306 308 310 309 306 305 305 307 308 309 307 307 305 302 305 307 308 309 309 309 309 307 304 301 300 296 293 291 290 289 288 288 288 288 288 289 289
292 292 293 287 289 291 293 293 293 293 293 293 293 292 293 293 294 303 303 304 303 303 304 306 305 306 310 312 313 310 312 308 306 304 304 306 307 307 304 301 298 297 294 292 291 290 288 288 288 288 288 289 289 289
291 292 294 291 291 291 291 292 290 289 289 290 290 291 292 293 294 302 304 304 304 304 303 305 306 305 308 307 308 304 303 305 306 304 302 302 304 304 303 299 297 295 293 291 290 289 288 288 288 288 288 289 289 289

GFSWCAN_850_thetae_252.txt.gz
Theta_e
295 295 296 296 297 297 298 298 296 301 311 315 321 321 318 314 316 315 313 313 313 310 305 305 305 304 302 302 298 297 299 298 298 300 302 302 302 297 300 300 299 299 295 293 289 293 306 294 292 294 294 294 293 293
295 294 295 295 296 296 296 297 296 298 306 311 316 321 320 314 315 316 314 312 313 311 305 305 305 305 305 304 304 299 303 300 303 300 297 295 299 294 298 303 294 299 299 300 300 301 296 295 295 296 294 294 293 293
294 294 292 293 294 296 297 297 298 294 302 311 310 318 320 316 314 316 315 313 311 309 304 304 304 304 304 304 304 302 302 304 303 307 301 295 300 294 298 298 298 295 296 296 297 296 295 295 295 295 294 293 293 292
293 292 294 293 294 295 296 297 298 297 298 304 308 311 319 318 313 315 315 313 312 310 306 301 302 303 304 304 303 303 305 305 305 304 304 293 300 296 297 298 298 295 294 294 294 293 294 295 295 295 293 293 292 291
292 292 292 294 295 295 295 296 297 298 297 301 302 309 312 319 314 314 315 313 312 311 304 299 300 301 303 304 303 303 305 305 306 304 300 297 296 294 290 292 293 295 294 297 301 300 299 299 296 295 293 293 292 292
292 292 293 294 294 294 295 296 296 297 297 297 299 306 309 317 318 313 313 314 312 309 309 297 298 299 300 302 302 303 304 304 305 303 299 298 297 296 294 298 302 302 301 302 303 300 299 299 297 295 293 292 292 292
293 293 293 294 294 294 294 295 296 297 298 297 298 302 308 308 313 312 314 313 314 309 310 296 295 297 299 300 300 301 302 303 302 301 297 296 295 296 289 299 306 304 302 301 301 300 296 296 295 294 293 292 292 291
292 292 293 293 293 293 293 294 296 295 297 297 296 301 306 310 310 310 312 309 311 308 309 292 290 295 298 298 299 299 300 301 300 298 296 294 294 293 294 301 303 302 299 299 299 301 301 298 296 293 293 292 292 291
292 292 292 292 293 293 293 293 296 295 295 298 297 299 304 309 307 306 312 310 307 308 306 297 297 297 296 296 297 298 299 297 296 296 295 295 288 294 302 307 304 303 303 301 297 298 298 297 295 293 293 293 292 291
291 291 291 292 292 292 292 293 295 295 297 298 298 301 300 305 306 305 306 305 305 306 305 297 297 293 296 295 294 297 296 291 296 295 294 289 294 304 311 310 309 307 303 301 297 295 296 295 294 294 293 293 292 291
291 291 291 291 291 292 292 294 293 295 299 298 300 301 301 304 303 303 302 303 303 302 300 297 296 293 296 296 294 296 291 284 296 296 294 295 294 298 312 312 310 307 304 303 305 306 304 303 296 294 293 293 292 291
290 290 290 290 291 292 292 294 294 295 298 298 300 300 300 300 301 301 302 300 301 304 297 294 297 299 298 299 298 294 293 288 300 291 290 298 298 314 314 312 311 308 305 302 302 303 301 298 296 295 293 293 292 291
290 289 290 291 291 291 292 292 294 295 297 299 300 300 298 299 301 305 305 304 300 295 294 296 295 300 298 299 293 291 292 297 292 290 297 299 305 310 309 310 307 306 302 301 300 300 300 297 295 294 293 293 291 291
289 289 289 290 290 290 291 291 293 293 295 299 298 297 298 301 301 304 303 298 301 298 298 302 297 299 297 295 291 296 287 289 290 293 299 298 311 310 307 306 305 304 301 300 300 299 298 296 294 294 293 293 292 291
289 290 290 290 290 290 290 291 292 293 295 298 298 300 299 301 304 304 306 306 303 300 300 301 297 299 293 292 290 287 289 292 294 302 300 310 314 312 307 304 303 303 300 299 299 298 296 295 294 293 293 292 291 290
290 290 290 290 290 290 291 292 293 295 297 299 297 298 300 301 301 302 300 299 303 300 303 304 296 298 298 295 288 296 297 299 304 296 310 314 313 309 307 303 302 302 300 299 298 297 296 294 294 293 293 291 291 290
290 290 289 289 290 290 291 292 295 297 297 297 298 299 300 301 303 304 305 301 300 301 303 297 301 304 291 290 293 296 299 305 308 310 311 312 313 309 306 303 301 301 300 298 298 296 295 294 294 293 292 291 291 290
290 289 289 289 290 290 292 295 297 297 296 298 299 300 301 302 304 305 303 301 301 304 304 303 297 293 298 299 296 297 302 308 310 309 310 309 307 305 303 303 302 300 299 298 297 296 294 294 293 293 293 291 290 289
289 289 289 290 291 291 294 295 297 297 297 298 300 301 302 303 303 303 305 302 302 305 308 301 299 301 304 297 301 309 312 310 310 310 309 307 306 305 304 302 300 299 299 298 297 296 294 294 294 293 293 291 291 290
290 290 290 289 290 291 294 295 296 297 296 299 300 300 301 302 304 305 305 303 301 303 304 302 306 306 309 312 313 315 315 313 313 309 305 304 303 301 302 303 302 300 298 297 296 295 294 293 293 293 293 292 291 290
289 289 288 288 289 290 292 294 295 296 298 298 299 299 300 301 301 303 304 301 300 301 304 309 310 311 312 313 313 315 316 314 314 314 313 305 300 300 301 299 299 300 299 297 296 294 294 294 294 293 293 292 291 291
289 289 289 289 291 292 292 293 295 296 297 297 298 299 299 299 300 300 301 300 300 303 306 308 310 311 311 313 314 314 315 315 314 314 313 311 305 300 297 298 300 300 300 299 297 296 294 294 294 293 293 292 291 290
290 289 289 289 291 293 294 294 294 295 291 296 298 297 295 299 301 301 300 300 303 304 305 307 310 310 311 311 310 311 311 313 314 313 311 309 306 303 301 301 301 301 299 298 298 296 295 295 294 293 293 292 291 290
289 289 289 290 292 293 293 293 294 294 295 296 297 301 300 299 299 300 302 302 303 305 305 306 308 309 312 311 311 310 308 306 308 309 308 308 306 303 302 302 301 301 304 300 297 296 296 295 294 293 293 292 290 290
289 289 289 286 291 292 287 285 291 294 294 284 290 296 297 297 299 301 302 303 303 304 305 306 307 309 309 310 312 311 307 305 305 308 308 305 303 299 298 298 299 301 300 300 298 297 296 295 294 293 293 292 291 290
287 288 289 285 285 290 288 289 286 290 289 288 290 294 296 295 298 300 301 305 306 307 306 306 307 308 309 310 311 311 309 306 303 303 305 306 307 307 305 301 299 298 300 301 302 300 297 295 294 293 293 292 291 291
284 283 289 290 291 291 289 290 291 288 288 289 286 291 291 297 298 298 303 304 306 306 307 308 308 308 309 311 313 314 313 309 305 302 302 301 300 301 305 309 310 309 306 304 303 302 300 297 295 294 293 292 291 291
289 290 286 289 289 291 291 292 290 291 290 293 291 290 292 296 300 302 304 305 305 304 306 306 307 308 309 310 313 315 312 308 302 301 300 299 300 299 300 302 304 306 305 306 305 302 301 299 297 294 293 293 292 291
290 289 290 286 290 290 289 290 291 293 294 295 293 295 293 299 299 300 300 300 301 303 305 305 305 305 305 306 309 312 313 312 306 303 299 299 297 299 301 301 303 303 304 305 303 303 301 300 298 296 294 293 292 291
288 290 287 288 288 289 290 292 293 293 293 294 295 295 295 296 297 297 298 300 301 300 301 303 302 302 302 303 304 306 309 310 312 310 309 304 306 308 307 306 304 304 305 304 303 301 298 297 296 294 293 293 292 291
289 289 288 289 289 290 290 290 291 292 292 293 293 294 295 295 296 297 299 299 300 301 301 302 301 302 302 301 300 302 304 309 308 308 308 307 307 307 305 306 305 304 306 305 304 303 301 298 296 295 294 293 292 291
289 289 289 287 290 291 291 291 291 291 292 293 293 294 295 295 296 297 297 297 298 299 299 300 302 301 301 302 300 300 302 304 309 312 310 307 307 306 306 307 304 304 306 307 305 303 301 300 297 295 294 293 292 291
289 290 290 290 290 286 291 290 290 289 290 291 292 292 292 293 293 294 294 294 295 296 297 298 298 299 300 300 302 300 300 300 301 302 304 308 310 307 306 306 306 304 306 307 306 304 302 300 298 297 294 293 292 290

GFSWCAN_850_thetae_255.txt.gz
Theta_e
294 295 295 295 296 296 297 297 298 298 296 304 311 311 320 318 313 315 313 312 313 310 306 305 305 304 302 302 298 297 299 298 298 301 304 303 303 299 301 300 299 301 298 297 293 298 310 294 292 298 297 295 295 294
296 295 295 293 295 295 296 296 297 298 297 297 310 308 315 319 313 314 313 312 313 309 306 305 305 304 305 305 304 299 304 300 303 301 298 297 300 295 300 305 294 302 302 304 303 305 296 295 296 296 295 295 293 293
295 295 294 293 292 294 296 296 297 298 298 296 302 310 308 318 314 313 314 312 311 309 304 303 303 303 304 304 304 302 302 303 303 307 301 297 303 296 301 300 299 295 296 298 300 297 296 296 296 296 295 294 293 292
295 295 294 293 293 292 295 295 296 297 298 298 298 306 308 313 316 313 314 312 310 309 306 301 302 303 303 303 303 304 305 305 305 305 303 297 304 296 298 299 299 296 295 296 296 295 295 297 296 297 294 293 293 292
294 294 293 292 292 294 295 295 296 296 297 298 296 302 308 308 316 313 313 313 310 310 305 299 300 301 302 302 301 303 305 305 306 304 299 299 297 295 290 293 295 295 296 300 304 303 302 302 300 296 295 293 293 292
294 293 293 292 293 293 294 294 294 296 297 297 297 298 307 306 310 314 312 314 311 307 308 297 298 299 300 301 301 302 304 305 306 305 300 298 298 297 296 299 303 304 303 304 305 303 302 301 300 297 295 293 292 292
293 292 292 293 293 293 294 294 294 295 296 296 297 298 301 306 304 307 311 311 314 308 308 296 294 298 299 300 301 302 303 303 303 303 298 297 295 297 293 300 308 307 305 303 303 302 299 299 297 297 295 293 292 292
292 293 293 293 293 293 293 293 293 296 296 295 295 297 295 303 306 308 308 307 309 307 309 292 289 296 298 298 299 300 301 301 301 299 296 294 293 293 294 300 307 308 304 302 302 302 302 301 298 295 294 293 292 292
293 292 291 292 292 293 292 292 292 293 295 295 297 298 297 301 305 308 308 306 304 307 306 298 299 298 297 296 297 298 299 295 296 295 294 295 292 296 301 309 308 308 307 307 299 300 300 300 298 295 293 292 293 292
292 292 292 292 292 292 291 292 292 293 292 298 296 299 300 302 304 307 306 301 302 305 305 297 298 294 296 294 294 296 295 292 295 294 294 290 295 302 311 312 312 311 307 305 299 296 297 298 297 295 294 294 293 292
292 292 291 291 291 291 292 290 291 292 295 297 298 300 300 301 303 303 300 300 303 302 300 298 297 293 296 296 295 296 292 284 296 297 295 296 295 298 311 312 313 312 310 310 309 309 307 307 300 296 294 293 293 292
292 291 291 291 291 291 291 291 291 293 294 296 297 299 300 300 300 299 301 299 300 302 297 294 297 299 297 299 297 293 293 289 299 291 291 299 299 313 314 313 312 311 311 308 306 306 304 303 301 297 295 294 293 292
292 291 291 290 290 291 291 291 292 293 293 295 297 298 299 298 299 302 304 303 303 297 295 296 295 298 298 299 293 292 293 297 292 291 299 300 306 312 313 312 311 309 309 306 304 303 303 303 299 297 295 294 293 291
291 290 290 290 290 290 291 290 290 291 292 295 297 298 298 299 300 303 301 298 303 301 299 299 295 299 298 296 292 299 288 289 290 293 300 299 313 316 313 311 310 308 307 305 303 302 302 302 299 296 295 294 293 291
290 290 290 289 290 290 290 289 290 291 292 294 296 298 297 299 301 302 304 304 301 300 300 299 296 298 293 293 292 289 289 294 295 302 301 310 315 315 314 311 309 308 306 304 303 301 301 300 297 295 294 293 292 291
290 290 290 289 289 290 290 290 290 291 292 294 297 297 299 298 299 301 303 303 303 299 301 304 299 300 298 294 289 297 299 299 302 296 309 314 316 315 315 309 309 307 306 304 302 301 301 299 296 295 294 293 292 291
290 290 289 289 289 290 290 290 290 292 294 294 296 297 299 300 302 302 304 305 304 300 303 300 304 307 291 291 293 296 299 302 307 310 312 313 314 315 312 307 306 305 303 302 301 300 300 297 295 294 293 292 292 291
290 290 289 289 289 289 290 290 291 295 295 294 295 296 297 298 302 304 303 303 300 300 303 304 298 292 298 301 301 296 301 309 311 310 310 311 312 311 308 306 304 302 302 301 300 300 298 296 295 294 294 292 291 290
289 289 288 288 289 291 290 293 293 295 296 295 295 295 299 299 299 301 303 304 302 301 304 300 301 299 302 298 302 308 311 314 314 313 313 311 310 309 308 305 302 301 301 301 300 300 298 296 295 294 294 292 291 290
289 289 289 289 290 290 291 293 294 294 295 296 296 297 297 298 301 301 302 304 302 300 301 302 304 303 307 309 309 309 309 310 311 311 309 309 308 305 304 304 302 300 300 298 298 298 296 294 294 294 294 293 292 291
290 290 289 289 289 289 289 291 294 295 296 295 297 297 299 300 302 302 301 302 299 300 300 303 307 309 310 310 310 311 311 310 310 311 314 311 306 302 300 299 299 298 298 298 298 297 296 296 295 294 294 293 292 292
290 289 289 288 288 290 290 290 291 294 295 296 297 298 296 295 298 300 302 300 300 301 301 303 305 307 308 310 310 309 310 309 309 308 307 307 308 304 302 300 297 297 298 299 300 299 297 295 295 294 294 293 292 291
289 289 289 289 290 290 291 291 292 292 291 291 297 296 295 294 299 299 299 300 301 301 301 302 302 304 305 306 308 310 309 309 310 309 306 304 304 304 303 300 299 300 298 298 299 299 297 296 295 294 294 293 292 291
289 289 288 288 288 287 291 291 293 294 294 295 295 292 295 295 297 297 296 299 299 300 301 302 302 303 304 305 306 309 311 307 309 310 307 304 302 300 300 302 301 299 299 298 297 297 297 296 295 294 294 293 292 291
289 289 288 286 289 289 287 289 292 292 293 293 293 291 288 297 298 297 296 298 300 301 302 302 301 302 302 302 303 306 309 309 307 309 310 306 302 300 298 297 296 297 298 297 296 296 297 297 295 294 294 293 292 291
288 288 287 283 282 283 284 287 289 288 288 285 290 291 293 290 291 294 298 301 301 301 301 301 301 301 302 303 303 303 307 309 308 309 310 309 306 302 301 299 296 296 297 297 298 298 298 297 296 295 294 293 293 292
284 280 288 288 288 289 288 289 290 288 289 291 288 292 291 295 293 294 300 300 302 302 304 304 305 305 305 306 305 305 306 307 309 309 310 310 310 306 302 302 302 301 297 297 301 302 302 300 298 296 294 294 293 292
288 288 283 288 287 288 286 285 287 289 287 292 291 291 292 292 294 297 296 297 300 302 303 304 304 305 305 304 304 304 305 306 306 305 306 307 305 304 304 301 299 299 300 299 298 299 301 302 301 298 296 294 293 292
288 289 288 285 286 287 286 287 287 290 290 292 291 292 291 293 294 294 295 296 296 297 299 301 300 300 300 299 301 303 305 304 304 304 305 305 303 303 306 302 299 298 298 299 299 301 300 301 301 300 298 296 294 293
287 288 286 286 286 286 288 290 290 290 290 290 290 291 291 291 291 292 293 295 295 295 295 295 296 299 301 298 300 301 301 301 302 302 302 303 305 305 306 306 303 299 298 298 297 295 296 296 296 295 294 294 294 293
289 288 287 287 287 288 288 288 288 288 289 289 290 290 291 291 291 291 292 292 293 293 294 295 297 299 300 301 300 300 300 300 301 301 300 300 301 302 304 305 305 301 298 298 298 298 299 298 299 298 296 296 295 294
288 288 287 286 287 288 288 288 289 288 289 289 289 290 290 290 291 292 292 293 294 295 296 298 299 299 297 297 297 297 299 300 301 301 301 302 299 299 300 301 301 299 299 299 298 297 298 300 301 300 298 296 296 294
287 287 288 288 287 286 288 288 288 286 289 289 290 290 290 291 291 292 292 293 294 294 295 294 294 294 293 293 293 294 297 298 299 300 301 301 301 299 299 300 300 299 296 299 301 299 296 298 300 300 298 297 296 295

GFSWCAN_850_thetae_261.txt.gz
Theta_e
297 297 297 296 296 295 294 295 296 297 298 299 298 297 305 310 311 313 312 313 311 311 312 309 308 307 307 310 310 305 305 304 307 319 325 322 321 315 316 314 310 312 316 314 316 322 321 302 299 307 309 303 301 300
296 296 297 295 296 295 293 292 294 296 296 298 298 298 299 309 310 311 310 312 312 310 309 309 307 306 307 307 307 303 312 308 310 316 318 319 316 313 318 319 308 314 319 326 320 320 308 301 305 302 302 302 300 299
296 296 297 297 296 295 293 291 292 296 296 297 297 297 296 304 308 309 309 309 309 308 309 308 305 306 305 305 306 307 305 308 309 312 317 323 325 316 318 316 312 308 306 311 312 313 308 303 301 301 300 301 299 298
296 296 296 296 297 296 293 292 293 294 296 296 297 297 297 297 305 307 309 310 305 307 311 307 306 304 305 304 303 304 306 305 307 307 310 319 327 310 317 314 313 309 306 310 311 311 305 305 303 300 299 299 298 297
297 296 296 296 296 296 294 293 293 292 291 292 294 296 296 296 301 306 309 310 304 305 311 303 301 302 303 302 302 302 303 304 307 311 316 320 309 308 306 307 310 305 310 311 315 314 314 311 306 301 299 298 297 296
296 295 295 295 296 295 293 294 293 292 291 291 294 296 295 295 299 306 309 310 306 302 303 309 301 300 301 301 300 301 303 304 308 312 314 308 304 309 317 315 316 309 309 311 314 309 308 307 305 301 299 298 297 295
295 295 295 295 295 294 292 293 294 293 292 293 296 296 295 297 299 305 307 306 307 306 302 304 301 297 299 300 300 301 302 304 306 309 307 308 303 305 313 315 315 312 309 308 307 308 304 304 303 300 299 298 296 295
294 295 295 296 295 293 294 293 292 292 291 292 291 292 295 297 296 302 305 306 307 305 302 306 304 299 299 301 302 301 302 302 303 308 301 304 301 303 309 309 312 312 310 307 306 306 306 305 303 299 298 296 295 294
294 295 295 295 294 294 293 292 290 289 289 288 289 294 296 297 298 301 303 305 306 304 301 304 308 309 299 300 300 300 303 309 303 307 306 305 310 310 308 309 311 312 311 311 304 302 303 303 301 298 297 296 295 294
294 295 295 294 294 294 291 290 288 288 288 288 291 297 299 300 300 302 303 302 302 300 300 302 304 302 300 301 302 303 301 313 309 307 300 305 310 309 310 311 312 312 312 308 303 299 300 300 300 299 298 298 295 295
295 295 294 294 294 293 290 290 288 288 288 294 298 298 298 299 300 302 300 300 299 301 301 304 304 299 298 304 306 302 306 305 309 311 309 310 309 309 310 312 313 314 311 311 314 314 310 309 304 300 298 297 295 294
295 294 294 294 294 292 290 289 288 288 291 293 294 296 296 299 299 300 302 300 301 308 304 301 301 301 299 300 304 299 307 303 313 301 306 310 315 313 313 314 315 312 310 309 311 307 308 306 305 302 300 298 295 295
294 294 294 294 293 292 291 289 288 289 291 292 294 295 297 298 301 303 305 306 306 305 299 299 300 299 297 299 301 303 307 308 302 306 309 312 313 313 314 312 312 312 310 309 308 306 305 305 303 302 299 298 296 295
294 294 294 293 292 292 291 290 289 289 291 294 294 297 299 300 300 304 305 309 308 307 302 302 299 301 300 302 302 309 306 303 307 310 313 314 312 314 315 314 313 313 310 309 307 306 304 304 303 301 300 299 297 295
294 294 293 292 292 291 291 289 289 289 292 293 293 296 299 299 300 301 301 303 302 302 301 302 301 303 302 301 301 299 301 309 311 315 315 314 314 314 315 314 314 310 308 306 304 304 304 304 302 299 298 298 297 295
294 293 292 292 292 291 290 290 289 290 290 291 291 294 296 298 300 301 301 302 302 300 301 303 304 305 305 304 303 306 313 314 319 310 312 312 311 311 311 311 311 310 309 307 304 302 303 303 302 302 298 297 296 295
293 293 292 291 291 291 290 290 290 290 291 291 291 293 294 295 296 297 298 299 299 298 302 303 306 310 303 307 308 309 314 317 315 312 309 308 308 308 308 310 310 309 308 306 302 300 300 300 299 297 297 296 296 295
293 292 291 291 290 290 290 290 290 290 290 290 292 292 294 295 295 295 295 297 297 298 299 302 298 305 310 312 314 314 308 308 309 309 308 308 307 309 310 308 307 306 305 302 300 298 298 298 298 298 298 296 295 294
293 291 291 290 290 290 290 289 289 290 291 292 293 292 292 293 293 293 295 295 297 296 297 299 302 306 311 307 307 307 308 307 306 307 307 307 306 304 304 306 306 305 303 301 298 298 297 297 298 298 297 297 295 294
292 291 290 290 290 289 289 290 290 291 292 294 294 294 295 295 296 296 296 296 298 297 298 300 303 304 305 306 305 304 304 304 305 306 308 309 306 304 302 301 302 302 301 299 297 296 295 295 296 296 297 297 295 294
291 290 289 290 290 288 289 290 291 292 293 294 295 295 295 296 297 297 297 296 298 298 299 297 298 299 302 300 301 303 303 304 304 304 304 306 308 307 303 301 299 298 299 299 297 295 295 295 295 295 297 295 295 294
290 290 291 290 289 289 289 288 290 291 291 293 292 295 296 296 298 298 297 298 298 298 299 298 299 299 299 300 302 301 301 302 302 303 305 305 306 307 307 303 300 298 296 297 297 296 295 294 294 294 294 293 293 294
290 290 289 289 288 289 288 288 290 289 290 292 294 295 297 298 299 298 299 299 298 298 298 298 298 297 297 299 301 301 300 300 301 301 301 304 305 306 307 309 305 299 297 296 295 295 295 294 294 294 293 292 292 292
289 289 288 288 289 289 288 289 290 290 291 291 292 293 295 295 297 298 299 299 299 300 300 300 300 301 301 301 300 300 299 300 301 301 301 303 304 303 305 307 308 303 298 296 296 295 294 294 294 294 293 292 292 293
289 289 289 288 288 288 288 289 291 293 293 293 293 293 295 295 296 298 298 297 299 300 299 299 299 300 300 300 301 301 301 301 301 301 301 303 303 303 303 306 308 306 300 296 295 294 293 293 293 293 293 292 292 293
289 288 288 288 288 288 289 289 289 291 291 293 293 293 294 295 295 296 296 297 297 298 298 298 300 300 300 301 301 301 302 302 302 301 301 300 301 302 304 305 306 307 306 302 296 296 295 294 294 293 293 294 293 293
288 287 286 288 288 288 290 290 290 291 291 292 292 293 293 293 293 295 295 296 296 293 292 292 294 299 301 301 301 300 301 301 301 301 302 303 305 304 304 305 306 307 306 304 302 298 298 296 295 294 294 294 294 294
289 287 286 286 286 288 289 290 290 291 290 290 291 292 292 292 292 293 295 295 293 292 291 291 291 292 299 300 298 298 299 300 300 300 301 303 304 304 304 304 306 306 305 301 301 299 299 297 296 295 294 294 293 292
288 287 288 287 288 289 289 290 290 290 290 290 291 290 291 290 290 290 290 291 291 290 290 290 290 290 290 290 292 294 296 298 298 299 299 299 300 303 304 304 305 305 307 303 301 300 299 298 296 294 294 293 292 292
288 288 288 287 286 288 288 288 289 289 289 289 289 289 289 289 289 288 289 289 289 289 289 289 290 290 290 290 290 291 292 294 296 298 298 298 300 300 300 301 303 303 303 301 298 300 297 294 293 293 292 292 291 291
289 288 289 289 289 288 288 288 288 288 288 288 289 289 289 289 289 289 289 289 289 289 289 290 290 289 289 289 290 290 291 293 295 296 298 299 299 299 299 299 301 301 301 301 299 298 297 294 293 293 293 292 291 292
289 289 289 289 290 289 289 289 289 289 289 289 289 289 289 289 289 289 289 289 289 289 289 289 289 289 289 290 290 290 291 291 292 295 296 299 297 295 298 299 300 300 300 300 299 299 296 294 294 294 294 293 292 292
290 290 289 289 290 290 289 289 289 289 289 289 289 289 289 289 289 289 289 289 289 289 289 289 288 288 289 289 290 291 291 292 292 294 295 296 296 294 294 298 299 300 300 300 298 297 297 296 294 294 295 294 292 292

GFSWCAN_850_thetae_267.txt.gz
Theta_e
301 300 299 300 299 298 298 295 294 294 295 296 297 297 297 297 299 307 310 312 313 312 314 313 312 309 310 309 305 303 303 303 303 309 310 315 316 309 307 303 301 302 301 301 302 305 310 303 301 305 307 307 306 306
302 301 300 299 299 298 298 296 294 293 292 294 296 297 296 296 296 305 308 310 311 311 312 313 314 312 308 308 309 304 308 304 305 307 308 312 312 307 307 309 303 308 305 305 307 309 308 304 305 306 308 306 305 305
302 301 301 299 298 298 298 296 295 292 291 292 295 296 297 297 296 298 305 308 309 310 311 312 314 313 311 310 307 306 305 308 308 309 314 307 313 306 309 311 307 306 309 309 309 309 309 309 307 306 306 307 305 304
302 302 301 299 298 298 298 297 295 292 291 291 291 293 294 295 293 294 299 305 307 308 308 311 311 312 314 313 309 306 307 307 308 310 311 301 305 311 310 309 307 305 306 306 305 306 309 310 312 309 306 305 304 302
303 302 301 299 298 298 297 297 296 295 293 291 291 291 292 295 293 294 293 303 306 307 306 308 308 310 307 307 307 304 305 306 307 308 306 308 312 306 303 303 304 305 304 306 308 310 310 311 313 311 307 306 305 303
303 302 301 300 298 298 298 297 297 296 294 292 291 291 294 295 295 294 298 300 305 305 306 307 306 306 305 305 304 302 302 303 306 309 312 313 309 307 301 303 307 310 311 312 312 314 312 313 313 312 310 307 305 304
304 303 302 300 298 297 296 296 296 295 294 292 291 291 291 293 293 293 301 301 302 302 304 304 305 301 300 301 300 300 300 302 305 308 308 309 305 305 299 308 312 314 313 312 311 311 310 311 312 312 310 307 304 303
305 304 303 301 299 297 296 296 296 295 292 291 291 291 290 289 290 292 294 295 300 301 303 303 303 300 299 300 300 301 302 303 304 306 307 303 302 301 303 307 312 313 313 312 311 311 311 311 311 310 308 305 303 302
304 304 303 300 299 297 296 296 296 294 292 290 289 288 289 292 296 296 299 300 298 302 300 300 303 300 299 301 301 301 302 302 302 299 302 302 298 302 303 309 311 312 312 313 314 311 309 309 310 309 307 304 303 302
302 303 303 301 298 297 296 296 295 292 290 288 288 293 295 298 298 297 299 299 301 300 300 299 302 296 299 301 299 301 302 304 303 301 304 298 301 305 309 310 310 312 312 312 311 307 306 306 308 308 309 308 307 304
303 303 303 301 298 296 296 296 294 291 288 288 293 296 297 297 298 298 299 299 299 298 299 299 302 296 299 299 301 303 302 303 307 303 303 299 299 302 309 309 311 312 312 312 312 314 314 313 312 310 308 307 305 305
304 304 303 301 297 296 296 296 292 289 289 292 292 292 291 296 297 298 299 298 299 300 300 300 301 303 301 302 302 301 303 303 307 300 299 302 302 311 312 312 313 313 312 312 312 312 312 312 311 310 310 308 307 305
304 302 301 299 296 296 296 295 290 288 289 289 289 292 294 294 297 297 299 303 302 302 301 301 297 302 299 303 301 301 305 304 300 297 301 301 307 312 313 314 314 314 311 311 311 311 310 311 311 311 309 309 306 304
302 302 300 298 296 296 296 294 289 290 288 290 291 291 294 297 297 294 301 301 300 301 300 300 299 299 300 302 300 304 303 300 303 300 304 304 311 314 314 314 313 314 313 312 313 312 311 311 310 309 308 308 306 304
302 301 300 297 296 296 294 292 289 288 290 292 291 289 288 296 297 298 299 300 300 300 300 300 300 299 301 302 301 302 302 304 301 303 303 309 312 312 312 312 313 313 313 313 313 312 311 310 310 309 307 307 305 304
300 299 298 297 296 295 293 290 289 289 290 291 291 290 292 292 293 297 299 299 299 299 300 301 301 303 304 303 301 304 306 305 304 303 305 304 306 307 308 309 309 311 312 312 312 312 312 311 310 308 306 305 304 303
298 298 297 296 295 294 292 290 289 289 290 290 290 290 291 291 292 294 297 298 298 297 301 299 302 304 301 304 304 305 307 306 304 302 304 302 303 304 306 306 306 306 308 309 310 310 310 309 307 306 305 303 303 302
297 297 296 295 294 292 290 289 289 289 287 290 289 290 290 291 292 293 294 295 295 295 296 299 296 299 303 308 307 303 303 303 303 304 304 304 303 303 301 303 304 305 305 305 307 307 306 306 305 304 303 302 301 299
297 296 295 294 292 291 291 290 289 288 289 289 289 289 290 291 291 291 292 294 293 293 295 295 296 300 302 300 300 301 300 301 301 301 302 302 302 303 304 302 301 302 302 303 304 304 304 304 304 303 302 301 300 298
296 295 294 293 291 290 289 289 289 289 290 290 290 290 291 291 292 291 292 293 293 295 293 289 291 298 302 302 300 300 299 298 300 301 300 301 303 301 303 304 302 300 301 301 301 301 301 301 300 300 300 300 299 298
295 294 292 291 290 289 289 288 288 289 290 292 293 293 294 294 294 294 294 294 295 296 296 295 295 295 295 296 300 300 299 298 298 300 301 300 302 301 302 303 304 304 300 299 300 300 300 300 300 299 298 298 298 298
293 292 291 290 289 288 289 289 290 290 290 290 292 292 290 294 295 294 295 295 296 296 296 296 296 296 296 297 297 296 297 297 298 299 300 301 300 302 301 301 303 303 304 302 299 298 298 298 298 297 297 297 296 295
292 291 290 289 289 288 288 288 288 288 282 287 291 289 287 293 294 294 296 297 296 296 296 296 297 297 296 297 297 297 298 299 299 299 301 301 300 301 301 300 300 302 304 303 301 298 297 297 297 296 296 296 295 294
291 290 289 289 288 285 288 288 288 289 289 284 281 281 282 291 294 296 292 296 297 296 297 297 298 298 298 298 298 298 299 299 299 298 299 300 300 300 301 301 301 302 303 303 303 301 297 296 296 296 296 295 294 294
290 289 289 286 288 285 283 282 280 283 283 283 281 280 282 293 286 286 291 293 293 293 293 293 294 295 299 299 300 300 300 300 300 301 301 301 301 300 300 300 301 302 302 301 302 302 300 296 295 295 295 295 294 293
288 288 285 280 283 282 281 283 286 288 287 282 284 290 292 286 285 287 291 293 293 294 294 295 296 298 296 294 298 300 301 301 301 301 301 301 301 301 302 302 301 302 302 301 301 302 301 297 296 295 295 295 294 293
287 287 288 288 288 288 286 288 289 286 283 283 282 285 284 284 285 290 293 294 293 294 294 293 293 293 292 292 293 293 294 298 298 297 298 299 300 300 300 300 300 301 301 301 302 302 302 300 297 297 296 295 294 293
286 288 286 287 288 288 287 286 283 284 285 289 288 284 284 287 289 292 293 293 294 294 294 292 290 290 290 289 289 289 291 292 293 294 293 294 297 298 300 299 299 300 302 303 303 303 302 301 299 298 298 296 295 294
287 287 287 283 288 288 287 286 286 289 290 290 287 286 288 291 291 291 292 291 291 289 289 289 289 288 288 288 289 289 289 289 290 292 292 291 292 297 297 296 298 299 299 300 301 302 301 299 299 300 299 297 296 295
287 288 286 286 286 286 287 288 289 289 289 289 290 289 289 289 289 289 289 289 290 290 289 289 289 289 289 289 289 289 289 289 289 289 290 291 292 294 292 293 295 296 298 299 299 299 298 299 299 296 300 297 295 294
288 288 287 287 282 287 288 288 288 288 289 288 288 289 289 289 289 289 289 289 289 289 289 289 289 289 288 288 288 289 289 289 289 289 289 289 290 292 292 292 292 293 295 297 299 299 298 298 297 298 299 300 299 295
288 288 287 286 286 288 288 288 288 288 288 288 288 288 288 288 288 288 289 290 289 289 289 289 289 289 289 289 289 288 288 288 289 289 289 289 289 289 290 291 291 292 294 296 298 296 298 300 298 296 297 297 296 295
289 288 288 288 287 287 288 288 288 287 288 288 288 287 287 287 287 289 289 290 289 289 289 290 290 290 289 289 289 289 289 289 289 289 289 289 289 289 288 289 289 290 290 292 296 297 294 296 299 300 296 295 295 294